Contact Information

Joe Mule - Race Director
RaceDirector@turkeydayrun.com

David Northrup - Deputy Race Director DeputyRaceDirector@turkeydayrun.com

Rachel Haynie - Sponsorship Director Sponsors@turkeydayrun.com

Danielle Snider - Media Director MediaDirector@turkeydayrun.com

Leslie Shields - Volunteer Coord./Office Coord. Volunteers@turkeydayrun.com

Questions? Feedback? Please Share.

Facebook Page
Twitter Page

Race Results for Age Group

2017 Female : 0-9

Results

Place BIB # Name Gun Time Pace Age City State
1 785 SHEILA GRANGROTH 00:20:13 06:31 0 Mt Pleasant SC
2 892 ANSLEY BUCKHAM 00:21:51 07:03 0 Daniel Island SC
3 5236 CAROLINE GUERRY 00:24:16 07:50 8 Moncks Corner SC
4 6881 EMILY WATKINS 00:24:51 08:01 0 Louisville KY
5 6736 SARAH ELLIS 00:25:32 08:14 5 Golden CO
6 525 NORA NEWHOUSE 00:26:13 08:27 9 Germantown TN
7 4474 MARYANNE AIMAR 00:27:28 08:52 0 Charleston SC
8 3755 LILY SLOAN 00:27:58 09:01 9 Johns Island SC
9 1596 MAGGIE BROCK 00:28:56 09:20 9 Charleston SC
10 4363 STACEY MEECH 00:29:18 09:27 0 Charleston SC
11 2757 JULIA KOCH 00:31:18 10:06 9 Mt Pleasant SC
12 2343 REAGAN GREGORY 00:31:49 10:16 4 Summerville SC
13 6914 ANNA SIMMONS 00:31:52 10:17 9 Charleston SC
14 1639 LACY BURBAGE 00:31:53 10:17 9 Charleston SC
15 6910 ELENA HOLLISTER 00:32:02 10:20 9 Mt Pleasant SC
16 5797 KEIRA MYERS 00:32:19 10:25 7 Mt Pleasant SC
17 2465 MAY HENDERSON 00:32:28 10:28 8 Mt Pleasant SC
18 6832 ABIGAIL HUSS 00:33:14 10:43 9 Mt Pleasant SC
19 1811 ANNA COOK 00:33:54 10:56 9 Mt Pleasant SC
20 4411 CAROLINE GOVAN 00:34:06 0:660 9 Charlottesvle VA
21 1916 ESM•Ŕ_ DAWSON 00:34:24 11:06 9 Mt Pleasant SC
22 5840 MARY BRYCE NYE 00:34:54 11:15 8 Summerville SC
23 5113 BRITAIN FLOYD 00:34:58 11:17 8 Ladson SC
24 3057 KLOEY MCKENZIE 00:35:06 11:19 7 Norton Shores MI
25 5506 LILAH KOWALSKI 00:35:20 11:24 7 Daniel Island SC
26 5897 AMY PASTRE 00:35:26 11:26 9 Charleston SC
27 857 MARY CLAIRE PEGRAM 00:35:52 11:34 0 Summerville SC
28 1446 MCKENZIE BARTH 00:36:06 11:39 8 Charleston SC
29 6213 BELLA SNIDER 00:36:08 11:39 7 Charleston SC
30 6215 MADELYN SNIDER 00:36:10 11:40 9 Charleston SC
31 8110 ELLA REESE 00:37:07 11:58 7 Midlothian VA
32 5350 MELYNN HOLMES 00:37:26 12:05 7 Kernersville NC
33 1275 ANZLEE MEYER 00:37:39 12:09 7 Summerville SC
34 2048 LILY EDGERTON 00:37:43 12:10 9 Mt Pleasant SC
35 6381 AMELIA WAGNER 00:38:09 12:18 8 Summerville SC
36 3471 NORA REARDON 00:38:40 12:28 9 Charleston SC
37 4121 CAROLINE WHITE 00:39:03 12:36 6 Crownsville MD
38 2611 HADLEY IRVINE 00:39:14 12:39 9 Isle Of Palms SC
39 5348 KIMI HOLMES 00:39:18 12:41 8 Suwanee GA
40 8060 LILLIAN PASTRE 00:39:24 12:43 6 Charleston SC
41 4746 FINLEY BOYD 00:39:26 12:43 9 Richmond VA
42 6968 CAROLINE CHOI 00:39:54 12:52 6 Mt Pleasant SC
43 6712 OLIVIA SMITH 00:40:05 12:56 5 Belleville IL
44 6429 MALLORIE WETHINGTON 00:40:31 13:04 9 Summerville SC
45 7429 AUDREY FEIST 00:40:37 13:06 9 Wando SC
46 5270 KATIE HARDIN 00:41:11 13:17 9 Ladson SC
47 6266 SASHA STUART 00:41:37 13:25 7 Mt Pleasant SC
48 5197 CHARLOTTE GOOD 00:41:44 13:28 6 Daniel Island SC
49 8426 CATE WASSENAAR 00:41:47 13:29 9 Atlanta GA
50 6783 SOPHIA DATILLO 00:41:50 13:30 8 Wilmington NC
51 6784 EVA DATILLO 00:41:51 13:30 9 Wilmington NC
52 5765 SARAH MOREY 00:42:13 13:37 9 Mt Pleasant SC
53 6307 HADLEY THOMPSON 00:42:45 13:47 9 Charleston SC
54 5557 BELLA LEWIS 00:43:36 14:04 7 Johns Island SC
55 6727 MIA LANZA 00:43:37 14:04 5 Mt Pleasant SC
56 6191 CHEYANNE SMITH 00:44:13 14:16 9 Summerville SC
57 3818 JADE ST MARTIN 00:44:17 14:17 9 Mt Pleasant SC
58 8704 ALAYNA ALVERSON 00:44:28 14:21 9 Ladson SC
59 4748 MAGGIE BOYD 00:44:41 14:25 7 Richmond VA
60 7541 LILA GOODWIN 00:45:04 14:32 7 Mt Pleasant SC
61 5722 GIGI MILLER 00:46:35 15:02 9 Charleston SC
62 5721 FRAN MILLER 00:46:39 15:03 7 Charleston SC
63 8539 JUDE AYERS 00:47:13 15:14 8 Goose Creek SC
64 8449 SHEA WHITNEY 00:47:53 15:27 9 Oakland CA
65 1568 JULIA BRAIDISH 00:48:19 15:35 6 Mt Pleasant SC
66 5206 BRENNAN GRANT 00:48:24 15:37 9 Charlotte NC
67 6572 SALLY LEWIS 00:48:32 15:39 7 Charleston SC
68 4824 EVIE CAMPBELL 00:48:54 15:46 7 Atlanta GA
69 8547 JACQUELINE BOATWRIGHT 00:49:05 15:50 0 Summerville SC
70 8548 SHEILA SHERMAN 00:49:06 15:50 0 N Chas SC
71 4745 SAVANNAH BOWERS 00:50:01 16:08 9 Newport News VA
72 7726 AMIYAH JOHNSON 00:50:19 16:14 6 Goose Creek SC
73 5829 LEYNA NOEL 00:51:04 16:28 6 Charleston SC
74 7409 ANTONIA EMORY 00:51:28 16:36 6 Ocean View NJ
75 8494 LILAH YEATER 00:51:29 16:36 7 Mt Pleasant SC
76 4706 CADENCE BLANCHARD 00:51:31 16:37 8 Summerville SC
77 5359 LYDIA HOWELL 00:51:38 16:39 6 Charleston SC
78 8008 KEIRA NEVEN 00:51:44 16:41 9 Daniel Island SC
79 8085 ADDISON POWELL 00:52:06 16:48 7 Cincinnati OH
80 7450 CAROLINE FINLEY 00:52:49 17:02 7 Mt Pleasant SC
81 7373 TRUE DIECK 00:53:07 17:08 8 Mt Pleasant SC
82 5891 VIRGINIA PARKER 00:53:20 17:12 8 Wilmington NC
83 5182 ALEX GIGIS 00:53:26 17:14 7 Charleston SC
84 5183 CATE GIGIS 00:53:28 17:15 4 Charleston SC
85 5915 SOPHIA PERLMUTTER 00:54:55 17:43 4 Charleston SC
86 6650 MARY CAMERON 00:54:56 17:43 0 Mt Pleasant SC
87 6080 NORA SACHTJEN 00:55:05 17:46 6 Apex NC
88 6058 SALLY ROWSON 00:56:22 18:11 9 Charleston SC
89 8331 CATE GRACE TEMPLIN 00:56:24 18:12 8 Charleston SC
90 7830 JUDITH LOGAN 00:56:51 18:20 9 Charlotte NC
91 8108 KATHERINE REDMOND 00:57:28 18:32 7 N Chas SC
92 7542 MOLLY GOODWIN 00:58:26 18:51 6 Mt Pleasant SC
93 6450 CHELSEA WILLIAMS 00:58:39 18:55 9 Mt Pleasant SC
94 8161 JESSE ROTH 00:59:48 19:17 7 Mt Pleasant SC
95 6302 MELIA THIBAULT 00:59:53 19:19 9 Mt Pleasant SC
96 7996 ALDEN MURRELL 00:59:58 19:21 8 Mt Pleasant SC
97 5107 CORA FLANIGAN 01:00:43 19:35 9 Charleston SC
98 8591 LYNNE BOUTS 01:00:57 19:40 0 Charleston SC
99 8590 SHERRY WELSH 01:01:02 19:41 0 Mt Pleasant SC
100 7997 AMES MURRELL 01:01:29 19:50 5 Mt Pleasant SC
101 4982 SOPHIE DETTLING 01:01:46 19:55 8 Campbell CA
102 4981 SKYLAR DETTLING 01:01:46 19:55 7 Campbell CA
103 7343 LYLA DAVIDSON 01:02:06 20:02 7 Charleston SC
104 4741 AMBER BOWERS 01:03:29 20:29 1 Newport News VA
105 7671 ANNE HOMERSTAD 01:03:30 20:29 6 Goose Creek SC
106 7681 VICTORIA HOWARD 01:03:45 20:34 8 Fort Benning GA

© 2011-2013 Knights of Columbus Council 704 Turkey Day Run and Gobble Wobble

Web Design by The Design Group